Flag for Germany Weather past 2 weeks in Gotha, Thuringia, Germany

Now
67 °F

Passing clouds.


Feels Like: 67 °F
Forecast: 61 / 85 °F
Wind: 2 mph from Southeast

Location: Erfurt-Bindersleben

Current Time: Aug 3, 2015 at 3:04:57 AM

Latest Report: Aug 3, 2015 at 2:00 AM


Visibility: 37 mi

Pressure: 30.11 "Hg

Humidity: 48%

Dew point: 46 °F

Location of GothaLocation

Historic Weather in Gotha — Graph

°F

Gotha temperature yesterday

Maximum temperature yesterday: 81 °F (at 5:00 PM)
Minimum temperature yesterday: 52 °F (at 7:00 AM)
Average temperature yesterday: 70 °F

Past Weeks' High & Low Weather Summary

 TemperatureHumidityPressure
High87 °F (Jul 22, 5:00 PM)100% (Jul 19, 7:00 AM)30.14 "Hg (Jul 19, 7:00 AM)
Low46 °F (Jul 31, 4:00 AM)26% (Aug 2, 4:00 PM)29.60 "Hg (Jul 25, 6:00 AM)
Average65 °F66%29.89 "Hg
* Reported Jul 19 2:00 AM — Aug 3 2:00 AM, Gotha, Weather by CustomWeather, © 2015

Note: Actual official high and low records may vary slightly from our data, if they occured in-between our weather recording intervals... More about our weather records

Advertising

Gotha weather history for previous 24 hours

 ConditionsComfort  
Time TempWeatherWind HumidityBarometerVisibility
2:00 AM
Mon, Aug 3
67 °FPassing clouds.2 mph48%30.11 "Hg37 mi
1:00 AM65 °FPassing clouds.3 mph51%30.12 "Hg37 mi
11:00 PM
Sun, Aug 2
71 °FOvercast.2 mph39%30.09 "Hg37 mi
10:00 PM72 °FPassing clouds.2 mph38%30.09 "Hg37 mi
9:00 PM75 °FScattered clouds.2 mph33%30.07 "Hg37 mi
8:00 PM78 °FScattered clouds.2 mph31%30.06 "Hg37 mi
7:00 PM80 °FScattered clouds.3 mph29%30.05 "Hg43 mi
6:00 PM80 °FScattered clouds.2 mph26%30.05 "Hg43 mi
5:00 PM81 °FScattered clouds.2 mph26%30.06 "Hg43 mi
4:00 PM80 °FScattered clouds.2 mph26%30.07 "Hg43 mi
3:00 PM79 °FScattered clouds.3 mph27%30.09 "Hg37 mi
2:00 PM79 °FPassing clouds.2 mph29%30.09 "Hg37 mi
1:00 PM78 °FPassing clouds.2 mph32%30.10 "Hg37 mi
12:00 PM76 °FPassing clouds.2 mph38%30.11 "Hg37 mi
11:00 AM72 °FPassing clouds.2 mph45%30.11 "Hg31 mi
10:00 AM69 °FPassing clouds.1 mph53%30.10 "Hg37 mi
9:00 AM63 °FPassing clouds.2 mph67%30.11 "Hg37 mi
8:00 AM57 °FPassing clouds.3 mph78%30.11 "Hg37 mi
7:00 AM52 °FPassing clouds.5 mph83%30.10 "Hg37 mi
5:00 AM52 °FPassing clouds.5 mph81%30.07 "Hg37 mi
4:00 AM55 °FPassing clouds.2 mph75%30.06 "Hg37 mi
Weather by CustomWeather, © 2015

See weather overviewHow to use our weather pages